Fort Smith, AR

1:31 PM CDT on October 22, 2017 (GMT -0500)
Fort Smith Regional

Weather History for KFSM - January, 2015

Change the Weather History Date:

Saturday, January 17, 2015

  Actual Average Record
Temperature  
Mean Temperature 47 °F 39 °F  
Max Temperature 64 °F 50 °F 73 °F (1952)
Min Temperature 30 °F 29 °F -6 °F (1930)
Degree Days  
Heating Degree Days 18 26  
Month to date heating degree days 522 442  
Since 1 July heating degree days 1800 1741  
Moisture  
Dew Point 32 °F    
Average Humidity 60    
Maximum Humidity 85    
Minimum Humidity 34    
Precipitation  
Precipitation 0.00 in 0.10 in 1.52 in (1928)
Month to date precipitation 1.75 1.50  
Year to date precipitation 1.75 1.50  
Sea Level Pressure  
Sea Level Pressure 30.03 in    
Wind  
Wind Speed 8 mph (North)    
Max Wind Speed 22 mph    
Max Gust Speed 26 mph    
Visibility 10 miles    
Events      
T = Trace of Precipitation, MM = Missing Value Source: NWS Daily Summary

Daily Weather History Graph

Daily Weather History Graph

Search for Another Location

Airport or City:

Trip Planner

Search our weather history database for the weather conditions in past years. The results will help you decide how hot, cold, wet, or windy it might be!

Date:

Astronomy

Jan. 17, 2015 Rise Set
Actual Time 7:25 AM CST 5:30 PM CST
Civil Twilight 6:57 AM CST 5:57 PM CST
Nautical Twilight 6:26 AM CST 6:28 PM CST
Astronomical Twilight 5:56 AM CST 6:59 PM CST
Moon 4:23 AM CST (1/17) 2:56 PM CST (1/17)
Length of Visible Light 11h 00m
Length of Day
10h 04m
Waning Crescent, 11% of the Moon is Illuminated
Jan 17
Waning Crescent
Jan 20
New
Jan 26
First Quarter
Feb 3
Full
Feb 11
Last Quarter

Hourly Weather History & Observations

Time (CST) Temp. Windchill Dew Point Humidity Pressure Visibility Wind Dir Wind Speed Gust Speed Precip Events Conditions
12:53 AM 35.1 °F 32.2 °F 28.9 °F 78% 30.07 in 10.0 mi ENE 3.5 mph - N/A   Clear
1:53 AM 33.1 °F 30.0 °F 28.0 °F 82% 30.07 in 10.0 mi NNE 3.5 mph - N/A   Clear
2:53 AM 32.0 °F 28.7 °F 27.0 °F 82% 30.05 in 10.0 mi ENE 3.5 mph - N/A   Clear
3:53 AM 30.9 °F 26.2 °F 26.1 °F 82% 30.02 in 10.0 mi NE 4.6 mph - N/A   Clear
4:53 AM 30.9 °F 27.5 °F 27.0 °F 85% 30.01 in 10.0 mi NE 3.5 mph - N/A   Clear
5:53 AM 32.0 °F 28.7 °F 27.0 °F 82% 30.00 in 10.0 mi NE 3.5 mph - N/A   Clear
6:53 AM 30.0 °F - 26.1 °F 85% 30.00 in 10.0 mi Calm Calm - N/A   Clear
7:53 AM 32.0 °F - 27.0 °F 82% 29.98 in 10.0 mi Calm Calm - N/A   Clear
8:53 AM 35.6 °F 28.6 °F 30.2 °F 81% 29.96 in 10.0 mi NE 9.2 mph - N/A   Clear
9:53 AM 44.1 °F 39.0 °F 34.0 °F 68% 29.97 in 10.0 mi East 9.2 mph - N/A   Clear
10:53 AM 48.9 °F - 35.1 °F 59% 29.99 in 10.0 mi NE 6.9 mph - N/A   Clear
11:53 AM 55.0 °F - 36.0 °F 49% 29.95 in 10.0 mi ENE 6.9 mph - N/A   Clear
12:53 PM 57.0 °F - 36.0 °F 45% 29.93 in 10.0 mi NNE 4.6 mph - N/A   Clear
1:53 PM 60.1 °F - 36.0 °F 41% 29.90 in 10.0 mi NNE 3.5 mph - N/A   Clear
2:53 PM 64.0 °F - 36.0 °F 35% 29.94 in 10.0 mi West 17.3 mph 25.3 mph N/A   Clear
3:53 PM 61.0 °F - 36.0 °F 39% 29.98 in 10.0 mi West 19.6 mph - N/A   Clear
4:53 PM 57.9 °F - 34.0 °F 41% 30.01 in 10.0 mi West 13.8 mph - N/A   Clear
5:53 PM 50.0 °F - 34.0 °F 54% 30.05 in 10.0 mi West 9.2 mph - N/A   Clear
6:53 PM 43.0 °F 38.2 °F 34.0 °F 71% 30.07 in 10.0 mi West 8.1 mph - N/A   Clear
7:53 PM 44.1 °F 38.6 °F 33.1 °F 65% 30.10 in 10.0 mi West 10.4 mph - N/A   Clear
8:53 PM 46.0 °F 41.0 °F 33.1 °F 61% 30.11 in 10.0 mi West 10.4 mph - N/A   Clear
9:53 PM 39.9 °F 33.4 °F 32.0 °F 73% 30.13 in 10.0 mi West 10.4 mph - N/A   Clear
10:53 PM 39.0 °F 32.3 °F 30.9 °F 73% 30.14 in 10.0 mi West 10.4 mph - N/A   Clear
11:53 PM 37.9 °F 30.0 °F 30.0 °F 73% 30.16 in 10.0 mi West 12.7 mph - N/A   Clear